Regional Weather Roundup
Issued by NWS

Home | Current Version | Previous Version | Text Only | Print | Product List | Glossary Off
Versions: 1 2 3 4 5 6 7 8 9 10 11 12 13 14 15 16 17 18 19 20 21 22 23 24 25 26 27 28 29 30 31 32 33 34 35 36 37 38 39 40 41 42 43 44 45 46 47 48 49 50

000
ASUS45 KBOU 162007
RWRCO

WEATHER ROUNDUP FOR COLORADO
NATIONAL WEATHER SERVICE DENVER/BOULDER CO
200 PM MDT TUE SEP 16 2014

NOTE: "FAIR" INDICATES FEW OR NO CLOUDS BELOW 12000 FEET WITH NO
SIGNIFICANT WEATHER AND/OR OBSTRUCTIONS TO VISIBILITY.

COZ001>005-013-030-031-162100-
...NORTHWEST COLORADO...

CITY           SKY/WX    TMP DP  RH WIND       PRES   REMARKS
CRAIG          MOSUNNY   80  37  21 CALM      30.24F
HAYDEN         MOSUNNY   81  30  16 W13       30.26F
MEEKER         MOSUNNY   83  26  12 W15       30.25F
MOUNT WERNER   NOT AVBL
STEAMBOAT SPGS MOSUNNY   76  34  21 SE3       30.28F
WALDEN         MOSUNNY   72  28  20 SW10      30.36F
$$

COZ006>008-011-162100-
...WEST CENTRAL VALLEYS...

CITY           SKY/WX    TMP DP  RH WIND       PRES   REMARKS
GRAND JUNCTION SUNNY     84  42  22 SW5       30.14F
MONTROSE       MOSUNNY   85  38  18 N5        30.22F
EAGLE          MOSUNNY   79  39  24 CALM      30.27F
RIFLE          MOSUNNY   79  41  25 NW5       30.19F
DELTA          MOSUNNY   86  42  21 SE3       30.17F
NUCLA          MOSUNNY   81  41  24 N5        30.25F
$$

COZ017>023-064>068-162100-
...SOUTHWEST COLORADO...

CITY           SKY/WX    TMP DP  RH WIND       PRES   REMARKS
DURANGO        MOSUNNY   79  45  29 W6        30.26F
CORTEZ         SUNNY     81  49  32 SW9       30.22F
PAGOSA SPRINGS MOSUNNY   77  34  21 W8        30.32F
TELLURIDE      NOT AVBL
WOLF CREEK PAS CLOUDY    52  30  43 CALM      30.64F
$$

COZ009-010-012-014-032>034-037-058>063-162100-
...CENTRAL COLORADO...

CITY           SKY/WX    TMP DP  RH WIND       PRES   REMARKS
ASPEN          MOSUNNY   75  33  21 N12G24      N/A
BUENA VISTA    MOSUNNY   77  29  17 N5        30.33F
COPPER MTN     MOSUNNY   59  23  25 W21G28    30.65F
BERTHOUD PASS  PTSUNNY   46  45  93 NW17G30   30.69S
COTTONWOOD PAS MOSUNNY   68  28  22 SE5       30.49F
GUNNISON       MOSUNNY   72  37  28 SW7       30.37F
KREMMLING      SUNNY     77  32  19 SW5       30.33F
LEADVILLE      MOSUNNY   62  29  28 NW14G21   30.49S
MONARCH PASS   MOSUNNY   54  32  43 W9        30.76F
SALIDA         MOSUNNY   80  31  17 CALM      30.37F
SUNLIGHT       MOSUNNY   63  36  36 CALM      30.60S
WILKERSON PASS NOT AVBL
$$

COZ069>075-162100-
...SAN LUIS VALLEY/SANGRE DE CRISTO MOUNTAINS...

CITY           SKY/WX    TMP DP  RH WIND       PRES   REMARKS
ALAMOSA        SUNNY     75  40  28 VRB3      30.32F
LA VETA PASS   NOT AVBL
SAGUACHE       MOSUNNY   77  37  24 SW5       30.34F
$$

COZ035-036-038>040-162100-
...NORTHERN COLORADO FRONT RANGE...

CITY           SKY/WX    TMP DP  RH WIND       PRES   REMARKS
DENVER INTL AP MOSUNNY   84  34  16 VRB3      30.15F
DMNS CITY PARK   N/A     87  34  15 E3        30.13F
AURORA         MOSUNNY   85  35  17 NE7       30.17F
FRONT RANGE AP MOSUNNY   86  36  16 N12       30.16F
ERIE MUNI ARPT MOSUNNY   85  30  13 CALM      30.12F
BOULDER MUN AP MOSUNNY   82  37  20 SE6       30.13F
CENTENNIAL     MOSUNNY   83  33  16 CALM      30.18F
BROOMFIELD     MOSUNNY   84  36  17 E6        30.17F
FORT COLLINS   SUNNY     86  37  17 SW6       30.10F
LONGMONT       SUNNY     87  42  20 E8        30.13F
$$

COZ041-046-047-076>085-087-088-162100-
...PIKES PEAK/PALMER DIVIDE AND SOUTHERN FOOTHILLS...

CITY           SKY/WX    TMP DP  RH WIND       PRES   REMARKS
COLO. SPRINGS  MOSUNNY   85  30  13 VRB5      30.20F
A. F. ACADEMY  SUNNY     80  33  18 SE6       30.22F
ELLICOTT       NOT AVBL
FALCON         PTSUNNY   82  29  14 NE5       30.27F
FORT CARSON    MOSUNNY   85  35  17 W5        30.18F
LIMON          SUNNY     86  32  14 N17G23    30.15F
MONUMENT HILL  SUNNY     77  32  19 N3        30.27F
TRINIDAD       MOSUNNY   85  39  19 MISG      30.18F
$$

COZ042>045-048>051-090-091-162100-
...NORTHEAST COLORADO...

CITY           SKY/WX    TMP DP  RH WIND       PRES   REMARKS
GREELEY ARPT   SUNNY     86  34  15 NW16      30.09F
AKRON          SUNNY     86  41  20 W10       30.08F
BURLINGTON     SUNNY     85  46  25 SW5       30.07F
WRAY           SUNNY     89  48  24 SW3       30.01F
STERLING       SUNNY     91  45  19 N15G21    30.03S
HOLYOKE        SUNNY     86  45  23 W12G18    30.02F
FORT MORGAN    SUNNY     89  31  12 N15G25    30.08S
$$

COZ086-089-092>099-162100-
...SOUTHEAST COLORADO...

CITY           SKY/WX    TMP DP  RH WIND       PRES   REMARKS
PUEBLO         SUNNY     87  48  25 SE7       30.09F
LA JUNTA       SUNNY     83  50  31 S3        30.08F
LAMAR            N/A     84  53  34 VRB3      30.05F
SPRINGFIELD      N/A     85  56  37 S9G16     30.10F
$$



USA.gov is the U.S. government's official web portal to all federal, state and local government web resources and services.